Regional Weather Roundup
Issued by NWS Green Bay, WI

Home | Current Version | Previous Version | Text Only | Print | Product List | Glossary On
Versions: 1 2 3 4 5 6 7 8 9 10 11 12 13 14 15 16 17 18 19 20 21 22 23 24 25 26 27 28 29 30 31 32 33 34 35 36 37 38 39 40 41 42 43 44 45 46 47 48 49 50
000
ASUS43 KGRB 270211
RWRGRB

NORTH-CENTRAL AND NORTHEAST WISCONSIN REGIONAL WEATHER ROUNDUP
NATIONAL WEATHER SERVICE GREEN BAY WI
800 PM CST SUN FEB 26 2017

WIZ005-009-010>012-018-019-270300-
NORTH CENTRAL WISCONSIN

CITY           SKY/WX    TMP DP  RH WIND       PRES   REMARKS
IRONWOOD       CLEAR     14   4  64 SW5       29.88R WCI   6
MANITOWISH WTR CLEAR      8   6  90 CALM      29.85R
ARBOR VITAE    CLEAR     19  12  73 NW6         N/A
EAGLE RIVER    CLEAR     18  10  73 NW5       29.84R
LAND O LAKES   CLEAR     10   8  91 CALM      29.85R
RHINELANDER    CLEAR     23  14  68 NW3       29.85R
PHILLIPS       CLEAR     20   9  63 NW3       29.86R
ANTIGO         CLOUDY    28  22  78 W8        29.85R
TOMAHAWK       PTCLDY    24  13  64 NW5       29.86R
MERRILL        NOT AVBL
$$

WIZ013-073-270300-
NORTHEAST WISCONSIN

CITY           SKY/WX    TMP DP  RH WIND       PRES   REMARKS
IRON MOUNTAIN  CLEAR     24  13  62 W13       29.84R
MARINETTE      PTCLDY    33  19  56 W5        29.87R
OCONTO         CLEAR     32  21  63 W6        29.87R
$$

WIZ017-030-035>037-045-270300-
CENTRAL WISCONSIN

CITY           SKY/WX    TMP DP  RH WIND       PRES   REMARKS
MEDFORD        CLOUDY    26  21  82 W5        29.86R
WAUSAU         CLOUDY    30  21  69 W7        29.86R
MOSINEE        CLOUDY    28  21  74 SW9       29.87R
MARSHFIELD     CLEAR     29  19  66 W10       29.87R
WISC RAPIDS    CLEAR     31  20  63 W7        29.91R
STEVENS POINT  CLEAR     30  18  60 W8        29.89R
WAUPACA        CLEAR     35  19  54 W8        29.90R
SHAWANO        CLEAR     34  19  55 W5        29.88R
CLINTONVILLE   CLEAR     32  18  55 W5        29.89R
WAUTOMA        PTCLDY    33  22  63 W8        29.92
$$

WIZ038-039-048-051-270300-
FOX VALLEY

CITY           SKY/WX    TMP DP  RH WIND       PRES   REMARKS
NWS GREEN BAY  PTCLDY    34  25  69 W7        29.89R
APPLETON       MOCLDY    34  21  60 W8        29.87R
OSHKOSH        CLEAR     35  23  61 SW6       29.90R
FOND DU LAC    CLEAR     34  24  67 SW5       29.91R
$$

WIZ022-050-052-270300-
EAST CENTRAL WISCONSIN

CITY           SKY/WX    TMP DP  RH WIND       PRES   REMARKS
EPHRAIM        FAIR      33  22  65 W9        29.85R
WASHINGTON ISL FAIR      29  22  74 N8        29.86R
STURGEON BAY   CLEAR     32  20  61 W5        29.88R
MANITOWOC      CLEAR     36  25  64 SW7       29.90R
SHEBOYGAN      CLEAR     33  25  72 SW8       29.91R
$$

LMZ563-521-522-541>543-270300-
LAKESHORE

STATION/POSITION TIME  TEMP    WIND        PRES    VSBY  WAVE
                       AIR SEA DIR/SP/G                  HT/PER
                 (UTC) (F)     (DEG/KT/KT) (MB)    (MI)  (FT/S)
SHEBOYGAN LKSHOR 0200   37     220/  8/  9 1013.6R
KEWAUNEE LKSHORE 0148   37     230/  5/ 10 1011.4R
NORTHPORT PIER   0140   33     280/  5/  9 1011.2R
SISTER BAY LKSHO 0135   32     290/ 10/ 13   N/A
CHAMBERS ISLAND  0140   34     220/  7/ 12 1010.8R
MENOMINEE LKSHOR 0148   35     240/ 12/ 15 1010.7R
$$



USA.gov is the U.S. government's official web portal to all federal, state and local government web resources and services.